Fairmont, MN

7:06 PM CDT on May 27, 2018 (GMT -0500)
Fairmont Municipal

Weather History for KFRM - May, 2013

Change the Weather History Date:

Wednesday, May 15, 2013

  Actual Average Record
Temperature  
Mean Temperature 65 °F -  
Max Temperature 77 °F 71 °F 93 °F (2001)
Min Temperature 53 °F 49 °F 32 °F (1997)
Growing Degree Days 15 (Base 50)    
Moisture  
Dew Point 39 °F    
Average Humidity 37    
Maximum Humidity 58    
Minimum Humidity 24    
Precipitation  
Precipitation 0.00 in - - ()
Sea Level Pressure  
Sea Level Pressure 29.89 in    
Wind  
Wind Speed 11 mph (NNW)    
Max Wind Speed 21 mph    
Max Gust Speed 26 mph    
Visibility 10 miles    
Events      
Averages and records for this station are not official NWS values.
T = Trace of Precipitation, MM = Missing Value Source: NWS Daily Summary

Daily Weather History Graph

Daily Weather History Graph

Search for Another Location

Airport or City:

Astronomy

May. 15, 2013 Rise Set
Actual Time 5:52 AM CDT 8:36 PM CDT
Civil Twilight 5:19 AM CDT 9:09 PM CDT
Nautical Twilight 4:37 AM CDT 9:51 PM CDT
Astronomical Twilight 3:49 AM CDT 10:40 PM CDT
Moon 10:30 AM CDT (5/15) 12:21 AM CDT (5/15)
Length of Visible Light 15h 50m
Length of Day
14h 44m
Waxing Crescent, 27% of the Moon is Illuminated
May 15
Waxing Crescent
May 17
First Quarter
May 24
Full
May 31
Last Quarter
Jun 8
New

Hourly Weather History & Observations

Time (CDT) Temp. Dew Point Humidity Pressure Visibility Wind Dir Wind Speed Gust Speed Precip Events Conditions
12:15 AM 69.8 °F 37.4 °F 31% 29.78 in 10.0 mi NW 18.4 mph 23.0 mph N/A   Partly Cloudy
12:35 AM 68.0 °F 39.2 °F 35% 29.79 in 10.0 mi NNW 17.3 mph - N/A   Clear
12:55 AM 66.2 °F 41.0 °F 40% 29.80 in 10.0 mi NW 20.7 mph 26.5 mph N/A   Clear
1:15 AM 64.4 °F 41.0 °F 42% 29.80 in 10.0 mi NNW 20.7 mph 26.5 mph N/A   Clear
1:35 AM 64.4 °F 41.0 °F 42% 29.80 in 10.0 mi NNW 20.7 mph 26.5 mph N/A   Clear
1:55 AM 62.6 °F 41.0 °F 45% 29.81 in 10.0 mi NNW 17.3 mph - N/A   Clear
2:15 AM 62.6 °F 41.0 °F 45% 29.81 in 10.0 mi NNW 17.3 mph - N/A   Clear
2:35 AM 62.6 °F 41.0 °F 45% 29.82 in 10.0 mi NNW 17.3 mph - N/A   Clear
2:55 AM 60.8 °F 39.2 °F 45% 29.82 in 10.0 mi NNW 17.3 mph - N/A   Clear
3:15 AM 60.8 °F 39.2 °F 45% 29.83 in 10.0 mi NNW 15.0 mph - N/A   Clear
3:35 AM 60.8 °F 39.2 °F 45% 29.83 in 10.0 mi NNW 16.1 mph - N/A   Clear
3:55 AM 59.0 °F 39.2 °F 48% 29.84 in 10.0 mi NNW 16.1 mph - N/A   Clear
4:15 AM 57.2 °F 39.2 °F 51% 29.85 in 10.0 mi NNW 16.1 mph - N/A   Clear
4:35 AM 57.2 °F 39.2 °F 51% 29.85 in 10.0 mi NNW 10.4 mph - N/A   Clear
4:55 AM 55.4 °F 39.2 °F 54% 29.86 in 10.0 mi NNW 10.4 mph - N/A   Clear
5:15 AM 55.4 °F 39.2 °F 54% 29.86 in 10.0 mi NNW 9.2 mph - N/A   Clear
5:35 AM 55.4 °F 39.2 °F 54% 29.87 in 10.0 mi NNW 9.2 mph - N/A   Clear
5:55 AM 53.6 °F 39.2 °F 58% 29.89 in 10.0 mi NNW 8.1 mph - N/A   Clear
6:15 AM 53.6 °F 39.2 °F 58% 29.90 in 10.0 mi NW 5.8 mph - N/A   Clear
6:35 AM 55.4 °F 41.0 °F 58% 29.91 in 10.0 mi NW 6.9 mph - N/A   Clear
6:55 AM 55.4 °F 41.0 °F 58% 29.93 in 10.0 mi NW 8.1 mph - N/A   Clear
7:15 AM 57.2 °F 41.0 °F 55% 29.95 in 10.0 mi NW 9.2 mph - N/A   Clear
7:35 AM 59.0 °F 41.0 °F 51% 29.94 in 10.0 mi North 11.5 mph - N/A   Clear
7:55 AM 60.8 °F 41.0 °F 48% 29.93 in 10.0 mi North 13.8 mph - N/A   Clear
8:15 AM 62.6 °F 41.0 °F 45% 29.94 in 10.0 mi North 12.7 mph - N/A   Clear
8:35 AM 64.4 °F 41.0 °F 42% 29.94 in 10.0 mi North 10.4 mph - N/A   Clear
8:55 AM 64.4 °F 41.0 °F 42% 29.94 in 10.0 mi North 13.8 mph - N/A   Clear
9:15 AM 66.2 °F 39.2 °F 37% 29.94 in 10.0 mi NNE 9.2 mph - N/A   Clear
9:35 AM 66.2 °F 39.2 °F 37% 29.96 in 10.0 mi NNE 5.8 mph - N/A   Partly Cloudy
9:55 AM 68.0 °F 37.4 °F 33% 29.96 in 10.0 mi NNE 5.8 mph - N/A   Mostly Cloudy
10:15 AM 69.8 °F 37.4 °F 31% 29.96 in 10.0 mi North 4.6 mph - N/A   Mostly Cloudy
10:35 AM 69.8 °F 35.6 °F 28% 29.95 in 10.0 mi NE 5.8 mph - N/A   Mostly Cloudy
10:55 AM 69.8 °F 35.6 °F 28% 29.93 in 10.0 mi East 8.1 mph - N/A   Scattered Clouds
11:15 AM 71.6 °F 33.8 °F 25% 29.96 in 10.0 mi NNW 4.6 mph - N/A   Mostly Cloudy
11:35 AM 69.8 °F 33.8 °F 27% 29.94 in 10.0 mi NNE 3.5 mph - N/A   Mostly Cloudy
11:55 AM 71.6 °F 35.6 °F 27% 29.96 in 10.0 mi Calm Calm - N/A   Scattered Clouds
12:15 PM 73.4 °F 37.4 °F 27% 29.95 in 10.0 mi WSW 4.6 mph - N/A   Partly Cloudy
12:35 PM 73.4 °F 37.4 °F 27% 29.95 in 10.0 mi Calm Calm - N/A   Clear
12:55 PM 73.4 °F 35.6 °F 25% 29.94 in 10.0 mi North 5.8 mph - N/A   Clear
1:15 PM 73.4 °F 35.6 °F 25% 29.92 in 10.0 mi Calm Calm - N/A   Clear
1:35 PM 71.6 °F 37.4 °F 29% 29.90 in 10.0 mi SE 6.9 mph - N/A   Mostly Cloudy
1:55 PM 69.8 °F 37.4 °F 31% 29.90 in 10.0 mi Calm Calm - N/A   Mostly Cloudy
2:15 PM 69.8 °F 42.8 °F 38% 29.91 in 10.0 mi Calm Calm - N/A   Scattered Clouds
2:35 PM 71.6 °F 37.4 °F 29% 29.91 in 10.0 mi NNE 11.5 mph - N/A   Clear
2:55 PM 73.4 °F 37.4 °F 27% 29.90 in 10.0 mi NNE 6.9 mph - N/A   Clear
3:15 PM 75.2 °F 39.2 °F 27% 29.91 in 10.0 mi North 4.6 mph - N/A   Clear
3:35 PM 77.0 °F 39.2 °F 26% 29.91 in 10.0 mi NW 9.2 mph - N/A   Clear
3:55 PM 75.2 °F 39.2 °F 27% 29.90 in 10.0 mi WNW 6.9 mph - N/A   Partly Cloudy
4:15 PM 75.2 °F 37.4 °F 25% 29.90 in 10.0 mi NW 6.9 mph - N/A   Partly Cloudy
4:35 PM 77.0 °F 37.4 °F 24% 29.90 in 10.0 mi NNW 9.2 mph - N/A   Clear
4:55 PM 77.0 °F 37.4 °F 24% 29.90 in 10.0 mi NE 5.8 mph - N/A   Clear
5:15 PM 75.2 °F 39.2 °F 27% 29.90 in 10.0 mi Calm Calm - N/A   Clear
5:35 PM 75.2 °F 39.2 °F 27% 29.89 in 10.0 mi NNW 5.8 mph - N/A   Partly Cloudy
5:55 PM 75.2 °F 39.2 °F 27% 29.89 in 10.0 mi NNW 5.8 mph - N/A   Mostly Cloudy
6:15 PM 75.2 °F 37.4 °F 25% 29.88 in 10.0 mi Calm Calm - N/A   Mostly Cloudy
6:35 PM 75.2 °F 37.4 °F 25% 29.88 in 10.0 mi North 3.5 mph - N/A   Overcast
6:55 PM 75.2 °F 37.4 °F 25% 29.88 in 10.0 mi North 3.5 mph - N/A   Overcast
7:15 PM 75.2 °F 35.6 °F 24% 29.88 in 10.0 mi Calm Calm - N/A   Overcast
7:35 PM 73.4 °F 35.6 °F 25% 29.88 in 10.0 mi Calm Calm - N/A   Overcast
7:55 PM 73.4 °F 37.4 °F 27% 29.88 in 10.0 mi Calm Calm - N/A   Overcast
8:15 PM 73.4 °F 37.4 °F 27% 29.88 in 10.0 mi Calm Calm - N/A   Overcast
8:35 PM 71.6 °F 37.4 °F 29% 29.87 in 10.0 mi Calm Calm - N/A   Overcast
8:55 PM 71.6 °F 37.4 °F 29% 29.87 in 10.0 mi Calm Calm - N/A   Overcast
9:15 PM 71.6 °F 37.4 °F 29% 29.88 in 10.0 mi SSE 3.5 mph - N/A   Overcast
9:55 PM 66.2 °F 39.2 °F 37% 29.88 in 10.0 mi South 5.8 mph - N/A   Unknown
10:15 PM 62.6 °F 39.2 °F 42% 29.88 in 10.0 mi South 5.8 mph - N/A   Scattered Clouds
10:35 PM 62.6 °F 39.2 °F 42% 29.88 in 10.0 mi SSW 5.8 mph - N/A   Clear
10:55 PM 60.8 °F 37.4 °F 42% 29.88 in 10.0 mi SSW 3.5 mph - N/A   Clear
11:15 PM 62.6 °F 39.2 °F 42% 29.88 in 10.0 mi South 4.6 mph - N/A   Clear
11:35 PM 59.0 °F 39.2 °F 48% 29.89 in 10.0 mi South 4.6 mph - N/A   Clear
11:55 PM 60.8 °F 39.2 °F 45% 29.89 in 10.0 mi SSW 5.8 mph - N/A   Clear